Погода в Руэм

Россия / Республика Марий Эл     56°37′59″N   47°45′28″E
темп.,
°C
ветер,
м/с
пор.,
м/с
влажн.,
%
обл.,
%
осадки,
мм/ч
давл.,
гПа
погр.,
м
17 мая, пн
пн1700:00+15юз2292100 0.9 101520
03:00+15ююв11958 1.5 101611
06:00+18ююз1188100 0.0 1016130
09:00+23з225681 0.0 1017533
12:00+27сз23405 0.0 10171495
15:00+27ссз34435 0.0 10171548
18:00+24ссв24595 0.0 1017153
21:00+18всв22735 0.1 101833
18 мая, вт
вт1800:00+16в237771 0.0 101856
03:00+14всв358667 0.3 101988
06:00+17в38777 0.0 1019233
09:00+23в45535 0.0 1019654
12:00+26в454575 0.0 10191184
15:00+27в45455 0.0 10191379
18:00+23в49606 0.0 1019405
21:00+18в411655 0.1 1019257
19 мая, ср
ср1900:00+16в311705 0.0 1019241
03:00+14вюв3117455 0.0 1019214
06:00+17вюв4116870 0.0 1020363
09:00+22юв58505 0.0 1020899
12:00+25юв57375 0.0 10191453
15:00+25юв57345 0.0 10191509
18:00+23вюв48500 0.0 1018690
21:00+17вюв412700 0.0 1019289
20 мая, чт
чт2000:00+16вюв414670 0.0 1018351
03:00+14юв312750 0.0 1019268
06:00+17вюв39685 0.0 1019261
09:00+22юв59425 0.0 10181091
12:00+25юв79305 0.0 10171623
15:00+24ююв6934100 0.0 10171742
18:00+22юв4947100 0.0 1017847
21:00+15юв3126868 0.0 1017248
21 мая, пт
пт2100:00+14юв311707 0.0 1017206
03:00+13юв39725 0.0 1017178
06:00+15юв3966100 0.0 1017250
09:00+21ююв5846100 0.0 1016708
12:00+24ююв68335 0.0 10152761
15:00+24ю683435 0.0 10143056
18:00+21ю484842 0.0 10141136
21:00+15ююв399465 1.9 1014253